[[{"header":{"parameterUnit":"m.s-1","parameterCategory":1,"la1":30.2991,"la2":30.254,"lo1":-89.0895,"lo2":-89.0444,"dy":0.0017,"dx":0.0017,"nx":28,"ny":28,"refTime":"2024-08-16T09:00:00:Z","depth":0,"parameterNumber":2,"parameterNumberName":"U-component_of_WINDS"},"data":[0,0,0,0,0,0,0,0,0,0,0,0,0,0,0,0,0,0,0,0,0,0,0,0,0,0,0,0,0,0,0,0,0,0,0,0,0,0,0,0,0,0,0,0,0,0,0,0,0,0,0,0,0,0,0,0,0,0,-0.6925,-0.6924,0,-0.6843,-0.6842,-0.6841,-0.6775,-0.6774,-0.6773,-0.6773,-0.6685,-0.6684,-0.6682,0,0,0,0,0,0,0,0,0,0,0,0,0,-0.7022,-0.7021,-0.6925,-0.6924,-0.6923,-0.6843,-0.6842,-0.6841,-0.6775,-0.6774,-0.6773,-0.6772,-0.6686,-0.6684,-0.6682,0,0,0,0,0,0,0,0,0,0,0,0,0,-0.6964,-0.7021,-0.6925,-0.688,-0.6876,-0.6843,-0.6842,-0.684,-0.6775,-0.6774,-0.6773,-0.6772,-0.6687,-0.6684,-0.6682,-0.6686,0,0,-0.6674,-0.6673,0,0,0,0,0,0,0,0,-0.6968,-0.6961,-0.6888,-0.6883,-0.6878,-0.6818,-0.6844,-0.6788,-0.6775,-0.6813,-0.6773,-0.6771,-0.673,-0.6724,-0.6711,-0.6682,-0.6678,-0.6674,-0.6672,-0.6671,-0.667,0,0,0,0,0,0,0,-0.6972,-0.6964,-0.6892,-0.6887,-0.6881,-0.6864,-0.6854,-0.6833,-0.6778,-0.681,-0.6805,-0.6796,-0.6727,-0.6713,-0.6708,-0.6677,-0.6674,-0.6671,-0.667,-0.6669,-0.6649,-0.665,0,0,0,0,0,0,-0.6983,-0.6968,-0.6895,-0.689,-0.6921,-0.6863,-0.6852,-0.6838,-0.6778,-0.6768,-0.6797,-0.6793,-0.6718,-0.6711,-0.6705,-0.6707,-0.6671,-0.6669,-0.6667,-0.6648,-0.6649,-0.665,0,0,0,0,0,0,-0.6985,-0.6977,-0.6898,-0.6927,-0.6916,-0.6862,-0.6847,-0.6837,-0.6823,-0.6769,-0.6758,-0.6793,-0.6717,-0.6708,-0.6692,-0.6703,-0.6667,-0.6665,-0.6647,-0.6648,-0.6649,-0.671,0,0,0,0,0,0,-0.6988,-0.6978,-0.698,-0.6928,-0.6915,-0.6887,-0.6847,-0.6836,-0.6819,-0.6814,-0.6762,-0.6753,-0.6716,-0.6696,-0.6689,-0.6699,-0.6663,-0.6645,-0.6647,-0.6649,-0.6707,-0.6714,-0.6719,0,0,0,0,0,-0.6992,-0.6999,-0.698,-0.6972,-0.6916,-0.6888,-0.688,-0.6838,-0.682,-0.6821,-0.6786,-0.6754,-0.6703,-0.6695,-0.6687,-0.6695,-0.6644,-0.6647,-0.6649,-0.6704,-0.6712,-0.6719,0,0,0,0,0,0,-0.7053,-0.6992,-0.697,-0.6961,-0.693,-0.6877,-0.6877,-0.6848,-0.6821,-0.6817,-0.6765,-0.6754,-0.6743,-0.6717,-0.671,-0.6697,-0.6669,-0.667,-0.6714,-0.6722,-0.6728,-0.6734,-0.6661,0,0,0,0,0,-0.7065,-0.7049,-0.6996,-0.6993,-0.6979,-0.6931,-0.6917,-0.6888,-0.6853,-0.684,-0.6804,-0.6771,-0.6748,-0.6733,-0.6708,-0.6703,-0.6691,-0.6705,-0.6712,-0.6717,-0.6718,-0.6714,-0.672,-0.6657,-0.6657,-0.6657,0,0,-0.709,-0.7055,-0.7048,-0.7004,-0.6977,-0.6961,-0.692,-0.6904,-0.6891,-0.6837,-0.682,-0.6792,-0.6752,-0.6742,-0.6735,-0.672,-0.6733,-0.672,-0.6724,-0.6722,-0.6717,-0.6723,-0.6729,-0.6659,-0.6659,-0.6658,0,0,-0.7128,-0.71,-0.7095,-0.7069,-0.7029,-0.6997,-0.6996,-0.6947,-0.6927,-0.6909,-0.6869,-0.6852,-0.6813,-0.6786,-0.6768,-0.6797,-0.6767,-0.6791,-0.6823,-0.682,-0.6825,-0.6829,-0.684,-0.6845,-0.6792,-0.6792,-0.6792,0,-0.7164,-0.7139,-0.7095,-0.7082,-0.7065,-0.7016,-0.7011,-0.6987,-0.6941,-0.693,-0.6913,-0.6864,-0.6833,-0.6817,-0.6824,-0.681,-0.6808,-0.6796,-0.6828,-0.6831,-0.6835,-0.6845,-0.6849,-0.6795,-0.6795,-0.6795,-0.6794,0,-0.7186,-0.7169,-0.7169,-0.7127,-0.711,-0.71,-0.7055,-0.7042,-0.7015,-0.6985,-0.6967,-0.693,-0.6897,-0.6891,-0.6863,-0.687,-0.6862,-0.6838,-0.6809,-0.6845,-0.6853,-0.6857,-0.68,-0.6799,-0.6798,-0.6797,0,0,-0.7258,-0.7194,-0.7195,-0.7176,-0.7129,-0.7114,-0.7103,-0.7073,-0.7063,-0.7033,-0.7022,-0.6991,-0.6968,-0.6947,-0.6916,-0.6914,-0.6941,-0.6889,-0.6887,-0.6901,-0.6947,-0.6966,-0.6972,-0.692,-0.6921,-0.6921,-0.6951,0,-0.7289,-0.7267,-0.7228,-0.7219,-0.7203,-0.7157,-0.7147,-0.7117,-0.7089,-0.7071,-0.7039,-0.7018,-0.699,-0.6977,-0.6972,-0.6938,-0.6949,-0.6936,-0.691,-0.6909,-0.6922,-0.6976,-0.6996,-0.7025,-0.6954,-0.6954,-0.6955,0,-0.7321,-0.7296,-0.7285,-0.7241,-0.7232,-0.7224,-0.7194,-0.7177,-0.7142,-0.7122,-0.71,-0.7066,-0.7052,-0.7026,-0.7005,-0.6997,-0.6984,-0.6966,-0.6966,-0.6962,-0.6934,-0.6974,-0.7034,-0.7039,-0.6959,-0.6959,-0.6959,0,-0.7377,-0.7339,-0.7328,-0.7313,-0.7261,-0.7256,-0.7234,-0.7198,-0.7183,-0.7156,-0.7145,-0.7117,-0.7101,-0.708,-0.7039,-0.7024,-0.7024,-0.6994,-0.7006,-0.7007,-0.7008,-0.7009,-0.7067,-0.6999,-0.6999,-0.6999,-0.6999,0,-0.7415,-0.741,-0.7352,-0.7346,-0.7339,-0.7295,-0.7289,-0.7263,-0.7232,-0.7219,-0.7177,-0.7166,-0.7113,-0.7096,-0.7064,-0.7053,-0.7045,-0.7029,-0.702,-0.7033,-0.7035,-0.7023,-0.7021,-0.7,-0.7,-0.7,-0.7,0,-0.7475,-0.7436,-0.7421,-0.7374,-0.7362,-0.7359,-0.7318,-0.731,-0.728,-0.7264,-0.7258,-0.721,-0.7188,-0.7146,-0.711,-0.7089,-0.7085,-0.707,-0.7097,-0.7092,-0.7107,-0.7106,-0.716,-0.7165,-0.7095,-0.7095,-0.7096,0,-0.7502,-0.7498,-0.745,-0.744,-0.7419,-0.7402,-0.7386,-0.7342,-0.7328,-0.7289,-0.7285,-0.726,-0.7237,-0.7203,-0.7165,-0.7139,-0.7123,-0.7144,-0.7119,-0.7132,-0.7124,-0.7125,-0.7125,-0.715,-0.7151,-0.7152,-0.7152,0,-0.7555,-0.7536,-0.7516,-0.749,-0.7473,-0.7449,-0.7424,-0.7417,-0.7367,-0.7353,-0.733,-0.7313,-0.7278,-0.7254,-0.7222,-0.7198,-0.7167,-0.7161,-0.7162,-0.7175,-0.7191,-0.7183,-0.7113,-0.716,-0.7159,-0.7158,-0.7158,-0.7158,-0.76,-0.7594,-0.756,-0.754,-0.7516,-0.7494,-0.7484,-0.7453,-0.7434,-0.7403,-0.7378,-0.7358,-0.7324,-0.7278,-0.7257,-0.724,-0.7225,-0.7227,-0.7228,-0.7229,-0.7234,-0.7194,-0.7234,-0.7233,-0.7233,-0.7233,-0.7233,0,-0.7651,-0.7627,-0.7609,-0.7575,-0.7559,-0.7532,-0.7503,-0.7491,-0.7474,-0.7445,-0.7425,-0.7399,-0.7375,-0.7336,-0.7309,-0.7303,-0.7289,-0.7298,-0.7298,-0.7293,-0.7249,-0.725,-0.731,-0.731,-0.731,-0.731,-0.731,-0.731,-0.7675,-0.7665,-0.7643,-0.7621,-0.7597,-0.7577,-0.7563,-0.7542,-0.7519,-0.7493,-0.7474,-0.7449,-0.7416,-0.7387,-0.7364,-0.7353,-0.7345,-0.7359,-0.7344,-0.7303,-0.7296,-0.7289,-0.7291,-0.7358,-0.7358,-0.739,-0.739,-0.739]},{"header":{"parameterUnit":"m.s-1","parameterCategory":1,"la1":30.2991,"la2":30.254,"lo1":-89.0895,"lo2":-89.0444,"dy":0.0017,"dx":0.0017,"nx":28,"ny":28,"refTime":"2024-08-16T09:00:00:Z","depth":0,"parameterNumber":3,"parameterNumberName":"V-component_of_WINDS"},"data":[0,0,0,0,0,0,0,0,0,0,0,0,0,0,0,0,0,0,0,0,0,0,0,0,0,0,0,0,0,0,0,0,0,0,0,0,0,0,0,0,0,0,0,0,0,0,0,0,0,0,0,0,0,0,0,0,0,0,2.1909,2.1909,0,2.1898,2.1898,2.1897,2.1908,2.1909,2.1909,2.1909,2.1895,2.1895,2.1894,0,0,0,0,0,0,0,0,0,0,0,0,0,2.1938,2.1937,2.1909,2.1909,2.1909,2.1898,2.1898,2.1897,2.1908,2.1909,2.1909,2.191,2.1896,2.1895,2.1894,0,0,0,0,0,0,0,0,0,0,0,0,0,2.1925,2.1937,2.1909,2.1913,2.1913,2.1898,2.1898,2.1897,2.1908,2.1909,2.1909,2.191,2.1896,2.1895,2.1894,2.1873,0,0,2.189,2.189,0,0,0,0,0,0,0,0,2.1926,2.1924,2.1912,2.1913,2.1913,2.1905,2.1902,2.1889,2.1908,2.191,2.1909,2.191,2.1898,2.1897,2.1893,2.1873,2.1872,2.189,2.1889,2.1889,2.1889,0,0,0,0,0,0,0,2.1927,2.1925,2.1904,2.1912,2.1912,2.1914,2.1913,2.19,2.19,2.191,2.191,2.1909,2.1898,2.1894,2.1893,2.1872,2.189,2.1889,2.1888,2.1888,2.1833,2.1832,0,0,0,0,0,0,2.1928,2.1926,2.1905,2.1904,2.1921,2.1913,2.1912,2.1907,2.19,2.19,2.1909,2.191,2.1896,2.1894,2.1892,2.1867,2.1889,2.1888,2.1887,2.1834,2.1833,2.1832,0,0,0,0,0,0,2.1928,2.1926,2.1905,2.1915,2.1913,2.1912,2.1906,2.1906,2.1902,2.19,2.1899,2.1904,2.1896,2.1894,2.1878,2.1866,2.1887,2.1886,2.1834,2.1833,2.1832,2.1816,0,0,0,0,0,0,2.1929,2.1926,2.1919,2.1915,2.1912,2.1892,2.1905,2.1906,2.19,2.1902,2.1896,2.1895,2.1897,2.188,2.1877,2.1865,2.1885,2.1835,2.1834,2.1833,2.1818,2.1815,2.1812,0,0,0,0,0,2.193,2.1915,2.1918,2.1916,2.1903,2.1891,2.1889,2.1892,2.19,2.1892,2.189,2.1896,2.1869,2.1878,2.1875,2.1863,2.1836,2.1834,2.1833,2.1819,2.1815,2.1812,0,0,0,0,0,0,2.1917,2.1914,2.1918,2.1901,2.1896,2.1893,2.1883,2.1888,2.188,2.1881,2.1884,2.1883,2.1865,2.1863,2.1873,2.1842,2.1853,2.1851,2.1844,2.1841,2.1838,2.1838,2.1884,0,0,0,0,0,2.1912,2.1903,2.1901,2.1886,2.1883,2.1884,2.1879,2.1881,2.1876,2.1873,2.187,2.1864,2.1854,2.1848,2.1838,2.1818,2.1816,2.1808,2.1805,2.1803,2.18,2.1788,2.1784,2.1826,2.1826,2.1826,0,0,2.1901,2.1899,2.1893,2.1883,2.188,2.1869,2.1882,2.1871,2.1863,2.1871,2.1856,2.1853,2.1847,2.1828,2.1819,2.1825,2.1788,2.1801,2.1799,2.1797,2.1785,2.1781,2.1778,2.1825,2.1825,2.1825,0,0,2.1877,2.1875,2.1862,2.1858,2.1852,2.1853,2.185,2.1845,2.1844,2.1829,2.1835,2.1825,2.1808,2.1803,2.1798,2.1771,2.1775,2.1768,2.1752,2.174,2.1737,2.1734,2.1722,2.1718,2.1765,2.1765,2.1765,0,2.1864,2.185,2.1854,2.1842,2.1837,2.1845,2.1831,2.1827,2.1818,2.1814,2.1821,2.1799,2.1796,2.1775,2.1768,2.1765,2.176,2.1768,2.1737,2.1734,2.1731,2.172,2.1716,2.1764,2.1765,2.1765,2.1765,0,2.1834,2.1824,2.1813,2.1805,2.1799,2.1786,2.1788,2.1781,2.1784,2.1783,2.1766,2.1762,2.1751,2.1747,2.175,2.1726,2.173,2.1737,2.1748,2.1726,2.1716,2.1712,2.1763,2.1763,2.1764,2.1764,0,0,2.18,2.1794,2.179,2.1786,2.1781,2.1772,2.1759,2.175,2.1743,2.1737,2.1725,2.1711,2.1717,2.1711,2.1713,2.1703,2.1679,2.1711,2.171,2.1703,2.1651,2.1645,2.164,2.1683,2.1682,2.1682,2.1651,0,2.1774,2.1752,2.1755,2.1733,2.1723,2.173,2.1719,2.1714,2.1713,2.1703,2.1702,2.169,2.17,2.1697,2.1687,2.1684,2.1669,2.1687,2.167,2.1669,2.167,2.1635,2.1628,2.16,2.1648,2.1647,2.1646,0,2.174,2.1733,2.171,2.1706,2.1702,2.1691,2.1682,2.1673,2.1667,2.1667,2.1661,2.1664,2.165,2.1663,2.1642,2.1654,2.1648,2.1645,2.1644,2.1641,2.1655,2.1629,2.1591,2.1586,2.1641,2.1641,2.1641,0,2.1715,2.17,2.1684,2.1681,2.1676,2.1668,2.1665,2.166,2.1653,2.1645,2.1641,2.1631,2.1625,2.1617,2.1617,2.1627,2.1596,2.1609,2.1594,2.1593,2.1585,2.1585,2.1544,2.1584,2.1584,2.1584,2.1584,0,2.1685,2.167,2.1673,2.1663,2.1646,2.165,2.1633,2.1632,2.1627,2.1616,2.1622,2.1611,2.1613,2.1602,2.1603,2.1584,2.1582,2.158,2.158,2.1579,2.1579,2.1573,2.1574,2.1583,2.1583,2.1584,2.1584,0,2.1653,2.1655,2.1638,2.1635,2.1633,2.1621,2.1617,2.1607,2.1607,2.1593,2.159,2.1589,2.1576,2.1576,2.1562,2.1562,2.1539,2.1542,2.1541,2.1541,2.1525,2.1526,2.1477,2.1469,2.1516,2.1516,2.1516,0,2.1633,2.1622,2.1617,2.1611,2.1608,2.1597,2.159,2.1594,2.1586,2.1578,2.1569,2.1557,2.1547,2.1526,2.1524,2.1512,2.1514,2.1498,2.1512,2.151,2.1511,2.1511,2.1509,2.1494,2.1493,2.1493,2.1493,0,2.1596,2.1597,2.1588,2.1579,2.1571,2.1564,2.1558,2.1552,2.1554,2.1546,2.1533,2.1526,2.1511,2.1498,2.1487,2.1483,2.1487,2.1489,2.1484,2.1481,2.148,2.1479,2.1531,2.1489,2.1489,2.149,2.149,2.149,2.1568,2.1558,2.1553,2.1543,2.1538,2.1532,2.1522,2.152,2.151,2.1499,2.1501,2.1486,2.148,2.1465,2.146,2.1448,2.1454,2.1448,2.1446,2.1444,2.1441,2.1484,2.1446,2.1446,2.1447,2.1447,2.1447,0,2.153,2.1527,2.1517,2.1508,2.1499,2.1506,2.1499,2.1491,2.1478,2.1472,2.1462,2.1447,2.1435,2.1431,2.1419,2.141,2.1411,2.1406,2.1406,2.1404,2.1438,2.1442,2.1405,2.1405,2.1405,2.1405,2.1405,2.1405,2.1509,2.1492,2.1492,2.1473,2.147,2.1456,2.1451,2.1445,2.144,2.1423,2.1413,2.1411,2.1405,2.1392,2.1381,2.138,2.1374,2.1368,2.1368,2.1398,2.1402,2.1406,2.141,2.1367,2.1367,2.1335,2.1335,2.1335]}]]